STARLINK-31363, 59782

Orbit data source: Space-Track

STARLINK-31363, 59782 is a payload satellite owned by SpaceX/Seattle (US) in LEO that was launched on Sat, 18 May 2024 UTC via an FALCON 9 launch vehicle from the Air Force Eastern Test Range (AFETR). Payloads include a variety of satellites, spacecraft, and rockets equipped with specific instruments for various scientific and technological missions. These include communications satellites like Starlink; space stations such as the ISS; scientific satellites like the Hubble; Earth observation satellites from companies like Planet Labs, Umbra, and HawkEye 360; GPS; miniature CubeSats for education and research; and military/defense satellites.

Loading next visibility...
STARLINK-31363 details
Identifier
59782, 2024-093A
Orbit
LEO
Last TLE update18 hours ago
Origin
Flag of USSpaceX/Seattle (US)
ManufacturerSpaceX/Seattle
MissionOperational spacecraft
Bus & MotorSTARLINK V2M, Unknown motor
Mass730 kg wet, ~700 kg dry
Launch date (UTC)
2024-05-18 (8 months ago)
Launch vehicle
FALCON 9
Launch site
Air Force Eastern Test Range (AFETR)
Object type
Payload
Rocket body
Debris
Shape & HBRUnknown
Radar Cross SectionLarge (>1 m²)

Expand to show TLE details & history

TLE from 18 hours ago
0 STARLINK-31363
1 59782U 24093A   25014.52689815  .00000916  00000-0  29209-4 0  9997
2 59782  43.0039  60.0690 0002181 276.1685  83.8923 15.40699858 38548
Epoch: 2025-01-14T12:38Z
Definitive object data (Epoch: 2025-01-14T12:38:44Z)
Latitude-0.00001°
Longitude116.15334°
Altitude443.659 km
Speed7.648 km/s
True Right ascension04h 00m 16s
True Declination0° 00' 00"
Sunlit
Object was in full shadow at TLE epoch
Visualization TLE readout
Latitude-29.65057°
Longitude74.34662°
Altitude450.661 km
Speed7.643 km/s
Apparent Right ascension22h 48m 43s
Apparent Declination-42° 04' 45"
Sunlit
Object is in daylight
Visualization observer readout
Local Sidereal Time07:46:28
Azimuth251.186° W
Elevation-55.952°
Doppler factor1
Orbital elements
Apogee altitude447.487 km
Perigee altitude444.51 km
Semi-major axis6,824.135 km
Eccentricity0.0002181
Inclination43.0039°
RAAN60.069°
Arg. of periapsis276.1685°
True anomaly83.91715°
Mean anomaly83.8923°
Eccentric anomaly83.90473°
Mean motion3.8501 °/min
BSTAR0.000029209
Orbital period93.5 mins
Loading maneuver chart data...
Loading historical data...
Loading historical data...
Loading historical data...
Loading historical data...
Loading historical data...
Loading historical data...
Loading historical data...

STARLINK-31363 Visibility forecast

Observer location: undefined°, undefined

Span
Click to sort rows by Start time (UTC) header in descending order
Start Az.
Max El. time (UTC)
Max El. Az.
Max El.
End time (UTC)
End Az.
6 mins2025-01-15 07:34:58.665Z260.111° W2025-01-15 07:37:58.665Z318.736° NNW43.395°2025-01-15 07:40:58.665Z69.345° E
4 mins2025-01-15 09:14:58.665Z302.539° NW2025-01-15 09:15:58.665Z334.301° NNW35.698°2025-01-15 09:18:58.665Z75.138° E
5 mins2025-01-15 10:52:58.665Z284.473° WNW2025-01-15 10:54:58.665Z136.924° SSE43.249°2025-01-15 10:57:58.665Z113.578° SE
5 mins2025-01-16 06:55:58.665Z256.09° W2025-01-16 06:57:58.665Z45.685° ENE44.108°2025-01-16 07:00:58.665Z71.146° E
|